Location: Newark
(48.5156°N, 1.8989°W)
Time: 11:54:14
(UTC+00:00)

N. Korean satellite - Visible Passes

Search period start: 22 September 2019 00:00
Search period end: 02 October 2019 00:00
Orbit: 455 x 509 km, 97.2° (Epoch: 21 September)

Date Brightness Start Highest point End Pass type
(mag) Time Alt. Az. Time Alt. Az. Time Alt. Az.
23 Sep 9.7 05:17:50 10° NE 05:20:16 18° E 05:22:42 10° SE visible
27 Sep 9.9 05:10:35 10° NE 05:12:40 15° E 05:14:45 10° SE visible
28 Sep 10.7 18:33:28 10° W 18:33:48 10° W 18:34:08 10° W visible
30 Sep 9.4 05:27:37 10° NE 05:30:28 24° E 05:33:20 10° SSE visible
01 Oct 10.1 05:03:25 10° ENE 05:05:02 13° E 05:06:38 10° ESE visible
